Weather reports worldwide

Advertisment
Kyritz, Germany (10267): temperature & dewpoint: 24.05.2020 22:00:00 - 30.05.2020 22:00:00 (CEST)Kyritz, Germany (10267): temperature 5cm & temperature -5cm: 24.05.2020 22:00:00 - 30.05.2020 22:00:00 (CEST)Kyritz, Germany (10267): temperature -20cm & temperature -100cm: 24.05.2020 22:00:00 - 30.05.2020 22:00:00 (CEST)Kyritz, Germany (10267): wind speed & gusts: 24.05.2020 22:00:00 - 30.05.2020 22:00:00 (CEST)Kyritz, Germany (10267): wind direction: 24.05.2020 22:00:00 - 30.05.2020 22:00:00 (CEST)Kyritz, Germany (10267): reduced air pressure: 24.05.2020 22:00:00 - 30.05.2020 22:00:00 (CEST)Kyritz, Germany (10267): visibility: 24.05.2020 22:00:00 - 30.05.2020 22:00:00 (CEST)Kyritz, Germany (10267): sunshine duration: 24.05.2020 22:00:00 - 30.05.2020 22:00:00 (CEST)Kyritz, Germany (10267): precipitation: 24.05.2020 22:00:00 - 30.05.2020 22:00:00 (CEST)
Date & Time tt [°C] td [°C] tt 5cm [°C] tt -5cm [°C] tt -20cm [°C] tt -100cm [°C] ff [km/h] ff [kn] fx [km/h] fx [kn] dd ppp [hPa] vv [km] sd [min] rr [mm]
30.05.2020 22:00:00 12,8 2,9 11,7 18,5 20,5 14,1 15 8 35 19 NNE 1024,3 75 15 0,0
30.05.2020 21:00:00 14,3 2,1 13,6 20,4 20,9 14,1 24 13 39 21 NNE 1023,7 73 41 0,0
30.05.2020 20:00:00 15,5 3,4 15,1 22,6 21,0 14,1 21 12 43 23 NNE 1023,6 75 50 0,0
30.05.2020 19:00:00 17,1 4,0 18,4 25,1 20,9 14,1 20 11 48 26 NNE 1023,4 61 56 0,0
30.05.2020 18:00:00 16,4 3,2 17,4 26,0 20,7 14,1 28 15 46 25 NNE 1023,8 75 52 0,0
30.05.2020 17:00:00 17,3 3,5 19,4 26,1 20,5 14,1 26 14 44 24 NNE 1024,1 44 45 0,0
30.05.2020 16:00:00 16,9 4,4 18,0 25,9 20,1 14,1 22 12 42 23 NE 1024,3 69 15 0,0
30.05.2020 15:00:00 17,8 3,6 20,8 26,9 19,5 14,1 23 12 52 28 NNE 1024,5 70 37 0,0
30.05.2020 14:00:00 18,7 3,6 23,1 26,8 18,8 14,1 27 15 49 26 N 1025,1 56 42 0,0
30.05.2020 13:00:00 17,8 2,8 20,8 24,7 18,3 14,1 23 12 42 23 NNE 1025,3 52 22 0,0
30.05.2020 12:00:00 17,7 2,9 21,1 24,1 17,6 14,0 22 12 52 28 NNE 1025,6 72 39 0,0
30.05.2020 11:00:00 17,6 2,9 21,6 22,8 17,0 14,0 26 14 43 23 NNE 1025,8 75 47 0,0
30.05.2020 10:00:00 17,0 2,2 20,4 21,2 16,5 14,0 21 12 32 18 NNE 1025,8 46 55 0,0
30.05.2020 09:00:00 15,8 2,8 17,7 19,0 16,2 14,0 17 9 34 18 NNE 1026,3 75 58 0,0
30.05.2020 08:00:00 13,8 5,7 15,2 16,2 16,2 14,0 10 5 17 9 NNE 1026,7 61 7 0,0
30.05.2020 07:00:00 13,2 5,1 14,9 14,9 16,4 14,0 8 4 16 8 NNE 1026,9 55 18 0,0
30.05.2020 06:00:00 11,8 4,4 11,7 14,1 16,6 14,0 10 5 16 9 ENE 1027,1 75 1 0,0
30.05.2020 05:00:00 11,5 4,7 11,1 14,2 16,9 13,9 9 5 16 9 ENE 1027,0 74 0 0,0
30.05.2020 04:00:00 11,4 4,9 11,0 14,4 17,3 13,9 9 5 16 9 NE 1027,0 75 0 0,0
30.05.2020 03:00:00 11,0 5,2 10,7 14,5 17,7 13,9 8 5 15 8 NNE 1026,9 64 0 0,0
30.05.2020 02:00:00 10,8 6,0 10,0 14,5 18,2 13,9 9 5 16 9 NE 1026,9 55 0 0,0
30.05.2020 01:00:00 11,2 5,6 9,2 15,3 18,8 13,9 9 5 15 8 NE 1027,0 66 0 0,0
30.05.2020 00:00:00 12,4 5,2 10,3 16,3 19,3 13,9 9 5 18 10 NE 1027,1 68 0 0,0
29.05.2020 23:00:00 13,9 4,4 12,2 17,5 19,9 13,9 11 6 18 10 NE 1026,7 65 0 0,0
29.05.2020 22:00:00 15,3 3,3 13,2 18,9 20,3 13,9 10 5 29 16 NE 1026,7 72 7 0,0
29.05.2020 21:00:00 17,3 2,5 16,1 20,7 20,7 13,8 16 9 29 16 NNE 1026,4 75 59 0,0
29.05.2020 20:00:00 18,6 3,4 17,8 22,5 20,9 13,8 16 9 30 16 NNE 1026,3 62 46 0,0
29.05.2020 19:00:00 18,9 4,0 18,8 25,0 20,8 13,8 14 8 28 15 N 1026,5 75 40 0,0
29.05.2020 18:00:00 19,0 4,5 19,6 24,8 20,8 13,8 14 7 25 14 NNE 1026,8 71 14 0,0
29.05.2020 17:00:00 19,1 3,2 19,8 25,5 20,6 13,8 14 8 25 14 NNE 1027,2 75 5 0,0
29.05.2020 16:00:00 19,5 2,7 21,9 26,8 20,2 13,8 10 5 24 13 N 1027,6 75 11 0,0
29.05.2020 15:00:00 19,4 1,7 21,9 27,1 19,7 13,8 6 3 19 10 NE 1028,3 68 12 0,0
29.05.2020 14:00:00 19,1 2,8 21,5 27,5 19,0 13,8 8 4 21 11 N 1029,1 75 13 0,0
29.05.2020 13:00:00 18,8 1,7 23,7 28,1 18,0 13,8 7 4 20 11 NE 1029,6 49 41 0,0
29.05.2020 12:00:00 18,8 3,2 25,4 27,2 16,9 13,8 6 3 19 11 N 1030,3 65 60 0,0
29.05.2020 11:00:00 17,5 2,3 23,2 24,1 16,0 13,8 4 2 12 6 NNW 1030,6 57 60 0,0
29.05.2020 10:00:00 16,7 3,3 21,3 20,8 15,3 13,8 5 3 12 7 SSE 1030,7 53 60 0,0
29.05.2020 09:00:00 14,8 6,1 17,9 17,4 15,0 13,7 7 4 16 9 E 1030,8 50 60 0,0
29.05.2020 08:00:00 13,2 6,3 15,7 14,3 14,9 13,7 4 2 10 6 E 1031,1 48 60 0,0
29.05.2020 07:00:00 9,8 5,7 11,3 12,0 15,2 13,7 4 2 10 5 NNE 1031,0 60 60 0,0
29.05.2020 06:00:00 8,3 5,7 6,9 10,9 15,7 13,7 4 2 10 6 N 1031,1 60 34 0,0
29.05.2020 05:00:00 5,6 4,5 2,8 11,2 16,2 13,7 5 3 9 5 NNE 1031,1 58 0 0,0
29.05.2020 04:00:00 7,3 4,9 4,2 12,0 16,8 13,7 7 4 11 6 N 1031,1 68 0 0,0
29.05.2020 03:00:00 8,1 4,8 4,2 12,8 17,4 13,6 6 4 12 7 NNE 1030,9 66 0 0,0
29.05.2020 02:00:00 9,3 4,8 6,4 13,6 18,0 13,6 7 4 16 8 NNE 1030,8 71 0 0,0
29.05.2020 01:00:00 10,3 4,6 8,6 14,5 18,6 13,6 9 5 16 8 NNE 1030,7 75 0 0,0
29.05.2020 00:00:00 11,2 4,5 9,4 15,6 19,2 13,6 9 5 17 9 NNE 1030,5 71 0 0,0
28.05.2020 23:00:00 12,4 5,0 10,6 17,0 19,8 13,6 10 6 19 11 NNE 1030,4 72 0 0,0
28.05.2020 22:00:00 14,1 5,5 12,6 18,6 20,4 13,6 12 7 26 14 NE 1030,3 66 0 0,0
28.05.2020 21:00:00 15,8 4,8 14,4 20,5 20,8 13,6 14 8 32 17 NNE 1029,7 62 52 0,0
28.05.2020 20:00:00 17,3 4,9 16,5 22,7 21,0 13,6 13 7 31 17 NNE 1029,3 72 35 0,0
28.05.2020 19:00:00 18,1 5,1 18,5 25,6 20,9 13,6 18 10 35 19 N 1029,1 75 35 0,0
28.05.2020 18:00:00 19,5 4,7 21,8 27,5 20,5 13,6 22 12 39 21 NNE 1029,2 67 58 0,0
28.05.2020 17:00:00 19,2 5,2 22,7 27,6 20,0 13,6 18 10 39 21 NNW 1029,5 59 56 0,0
28.05.2020 16:00:00 19,1 5,2 22,6 26,6 19,4 13,6 21 12 34 19 NNW 1029,6 71 33 0,0
28.05.2020 15:00:00 18,7 4,9 22,4 27,4 18,7 13,5 19 10 33 18 N 1029,9 54 40 0,0
28.05.2020 14:00:00 18,8 4,8 23,7 26,1 18,0 13,5 21 11 33 18 N 1030,1 75 33 0,0
28.05.2020 13:00:00 17,6 5,3 20,2 25,1 17,3 13,5 13 7 41 22 N 1030,5 73 30 0,0
28.05.2020 12:00:00 16,4 5,7 19,0 24,5 16,5 13,5 18 10 35 19 NNW 1030,7 40 45 0,0
28.05.2020 11:00:00 15,7 5,7 20,3 22,7 15,7 13,5 19 10 32 17 NNW 1031,0 44 60 0,0
28.05.2020 10:00:00 14,5 5,9 18,8 19,8 15,1 13,5 18 10 28 15 NNW 1031,1 61 60 0,0
28.05.2020 09:00:00 13,7 7,4 17,9 16,7 14,9 13,5 15 8 27 14 NW 1031,2 41 60 0,0
28.05.2020 08:00:00 12,1 7,0 14,9 14,2 15,0 13,5 17 9 29 15 NNW 1031,3 55 60 0,0
28.05.2020 07:00:00 11,0 6,9 13,4 12,6 15,2 13,4 11 6 21 11 NW 1031,2 35 60 0,0
28.05.2020 06:00:00 9,9 6,7 10,0 11,9 15,7 13,4 9 5 18 10 NW 1031,0 40 19 0,0
28.05.2020 05:00:00 10,2 6,8 8,7 12,4 16,1 13,4 12 7 22 12 NNW 1030,9 39 0 0,0
28.05.2020 04:00:00 10,9 6,9 9,3 13,2 16,6 13,4 10 6 22 12 NNW 1030,9 44 0 0,0
28.05.2020 03:00:00 12,2 6,8 10,7 14,3 17,0 13,4 11 6 23 13 NW 1030,9 51 0 0,0
28.05.2020 02:00:00 13,1 6,9 12,2 15,1 17,4 13,4 14 7 22 12 NW 1030,9 59 0 0,0
28.05.2020 01:00:00 13,8 6,7 13,3 15,8 17,8 13,4 12 7 29 16 NNE 1030,7 58 0 0,0
28.05.2020 00:00:00 14,5 8,2 14,1 16,5 18,2 13,4 16 9 33 18 N 1031,2 55 0 0,0
27.05.2020 23:00:00 14,9 8,8 14,6 17,2 18,7 13,4 14 8 24 13 N 1030,6 55 0 0,0
27.05.2020 22:00:00 15,7 8,9 14,9 18,3 19,1 13,4 13 7 27 14 NNW 1030,3 64 0 0,0
27.05.2020 21:00:00 17,0 8,0 16,8 19,6 19,4 13,4 17 9 37 20 N 1029,6 63 0 0,0
27.05.2020 20:00:00 18,6 9,8 18,3 21,0 19,7 13,4 14 8 29 15 N 1029,2 62 0 0,0
27.05.2020 19:00:00 19,3 8,7 19,0 22,3 19,8 13,4 9 5 19 11 NW 1029,4 54 0 0,0
27.05.2020 18:00:00 20,6 7,8 21,4 24,5 19,6 13,4 11 6 29 16 WNW 1029,5 58 0 0,0
27.05.2020 17:00:00 21,2 6,1 22,6 27,5 19,0 13,4 18 10 30 16 WNW 1029,8 56 46 0,0
27.05.2020 16:00:00 22,2 5,6 24,3 27,8 18,2 13,4 13 7 27 14 WNW 1030,2 38 53 0,0
27.05.2020 15:00:00 21,9 7,4 25,6 25,9 17,5 13,4 16 8 27 15 W 1030,7 58 49 0,0
27.05.2020 14:00:00 20,0 8,7 21,4 23,5 16,9 13,4 13 7 20 11 WNW 1031,5 50 10 0,0
27.05.2020 13:00:00 21,5 9,2 25,2 24,4 16,0 13,4 5 3 18 10 SSW 1031,9 41 38 0,0
27.05.2020 12:00:00 20,3 8,5 26,2 23,6 15,1 13,4 10 5 21 12 WNW 1032,4 35 53 0,0
27.05.2020 11:00:00 19,0 7,8 23,7 20,9 14,4 13,4 6 4 11 6 WNW 1032,9 63 44 0,0
27.05.2020 10:00:00 17,2 8,9 19,5 18,2 13,8 13,4 6 3 14 8 SSW 1033,2 68 37 0,0
27.05.2020 09:00:00 16,2 8,2 19,7 16,4 13,4 13,4 9 5 12 7 SSW 1033,5 62 60 0,0
27.05.2020 08:00:00 13,2 8,9 16,4 13,5 13,2 13,4 4 2 6 4 SSW 1033,8 59 60 0,0
27.05.2020 07:00:00 10,9 7,8 10,5 11,1 13,4 13,4 0 0 4 2 N 1033,7 54 60 0,0
27.05.2020 06:00:00 7,4 6,8 7,3 9,7 13,8 13,4 3 1 5 3 NNE 1033,9 19 24 0,0
27.05.2020 05:00:00 7,0 6,5 4,7 10,0 14,2 13,4 4 2 5 3 NNE 1033,9 40 0 0,0
27.05.2020 04:00:00 7,3 6,7 5,1 10,6 14,7 13,3 4 2 5 3 N 1034,4 39 0 0,0
27.05.2020 03:00:00 8,1 7,5 5,8 11,3 15,1 13,3 3 2 7 4 NE 1034,4 35 0 0,0
27.05.2020 02:00:00 9,2 8,5 7,1 12,1 15,6 13,4 5 3 7 4 NE 1034,7 45 0 0,0
27.05.2020 01:00:00 10,0 9,2 7,8 12,9 16,1 13,4 3 2 5 3 ENE 1034,7 31 0 0,0
27.05.2020 00:00:00 10,8 9,8 8,5 13,7 16,6 13,4 0 0 7 4 N 1034,7 30 0 0,0
26.05.2020 23:00:00 12,2 10,3 9,6 14,8 17,0 13,4 6 3 10 5 N 1034,7 39 0 0,0
26.05.2020 22:00:00 14,4 10,3 11,2 16,0 17,5 13,4 5 3 11 6 N 1034,5 54 0 0,0
26.05.2020 21:00:00 16,6 9,9 14,3 17,4 17,8 13,4 7 4 14 8 NNW 1034,0 49 20 0,0
26.05.2020 20:00:00 17,4 9,4 16,7 18,7 18,0 13,4 10 5 21 11 N 1033,8 63 0 0,0
26.05.2020 19:00:00 19,0 8,2 18,7 21,0 18,0 13,4 13 7 26 14 NNW 1033,7 75 54 0,0
26.05.2020 18:00:00 19,9 6,9 20,5 22,4 17,7 13,4 12 6 27 14 NNW 1033,8 69 52 0,0
26.05.2020 17:00:00 21,0 6,6 22,7 24,1 17,1 13,5 13 7 28 15 NNW 1033,8 71 54 0,0
26.05.2020 16:00:00 19,5 7,5 20,4 24,9 16,4 13,5 10 6 23 12 N 1034,1 56 54 0,0
26.05.2020 15:00:00 18,9 8,9 22,1 22,6 15,9 13,5 12 6 23 13 N 1034,3 71 28 0,0
26.05.2020 14:00:00 18,0 9,2 19,5 21,3 15,3 13,5 11 6 32 17 N 1034,5 68 21 0,0
26.05.2020 13:00:00 17,5 9,5 19,0 21,0 14,6 13,5 9 5 23 12 NW 1034,6 65 27 0,0
26.05.2020 12:00:00 16,7 9,8 18,0 20,3 13,8 13,5 10 6 21 11 NNW 1034,9 65 25 0,0
26.05.2020 11:00:00 16,9 9,5 22,2 19,1 13,0 13,6 13 7 21 11 NNW 1034,9 57 39 0,0
26.05.2020 10:00:00 15,9 10,4 19,5 17,6 12,3 13,6 10 5 17 9 NW 1035,1 40 42 0,0
26.05.2020 09:00:00 13,7 10,1 18,4 13,9 11,9 13,6 7 4 13 7 WNW 1034,8 56 20 0,0
26.05.2020 08:00:00 11,2 9,2 11,3 11,4 11,8 13,6 7 4 14 7 NNW 1034,6 26 0 0,0
26.05.2020 07:00:00 9,9 8,7 9,8 10,0 11,8 13,6 8 4 13 7 NNW 1034,2 22 0 0,0
26.05.2020 06:00:00 8,6 8,0 8,5 9,0 12,1 13,6 6 3 13 7 NNW 1034,0 12 0 0,0
26.05.2020 05:00:00 8,0 7,5 6,3 8,5 12,4 13,6 8 4 13 7 NW 1033,6 16 0 0,0
26.05.2020 04:00:00 7,6 7,3 4,6 8,9 12,7 13,7 5 3 10 5 NW 1033,4 13 0 0,0
26.05.2020 03:00:00 8,5 7,9 6,4 9,4 13,1 13,7 7 4 10 6 NW 1033,3 18 0 0,0
26.05.2020 02:00:00 8,3 7,7 6,1 10,0 13,5 13,7 5 3 12 7 WNW 1033,1 18 0 0,0
26.05.2020 01:00:00 8,0 7,3 6,7 10,7 13,8 13,7 4 2 9 5 WNW 1033,0 17 0 0,0
26.05.2020 00:00:00 9,8 8,2 6,7 11,5 14,1 13,7 6 3 12 6 NW 1032,6 35 0 0,0
25.05.2020 23:00:00 11,0 8,6 8,7 12,6 14,3 13,7 7 4 11 6 WNW 1032,3 39 0 0,0
25.05.2020 22:00:00 13,0 8,6 11,6 13,4 14,4 13,8 6 4 15 8 NNW 1032,0 41 0 0,0
25.05.2020 21:00:00 13,6 8,8 13,2 14,0 14,5 13,8 10 5 21 11 NW 1031,3 39 0 0,0
25.05.2020 20:00:00 14,0 8,4 14,0 14,6 14,6 13,8 13 7 27 15 NNW 1030,7 58 0 0,0
25.05.2020 19:00:00 14,3 8,5 14,7 15,0 14,5 13,8 14 8 25 14 NNW 1030,2 52 0 0,0
25.05.2020 18:00:00 14,0 8,9 14,8 14,9 14,5 13,8 10 5 21 12 NW 1030,0 51 1 0,0
25.05.2020 17:00:00 13,5 8,4 13,9 15,3 14,4 13,8 15 8 26 14 NW 1029,7 41 0 0,0
25.05.2020 16:00:00 12,8 8,4 13,3 14,6 14,4 13,9 14 8 33 18 NNW 1029,6 40 0 0,0
25.05.2020 15:00:00 12,8 8,0 13,3 15,2 14,2 13,9 16 9 31 17 NW 1029,3 52 0 0,0
25.05.2020 14:00:00 13,0 8,0 14,0 15,4 14,0 13,9 18 10 35 19 NW 1028,6 54 1 0,0
25.05.2020 13:00:00 12,4 8,2 13,9 15,2 13,8 13,9 18 10 34 18 NW 1028,3 37 0 0,0
25.05.2020 12:00:00 11,6 8,3 12,4 14,7 13,6 13,9 17 9 32 17 WNW 1027,7 57 0 0,0
25.05.2020 11:00:00 11,4 8,4 12,2 14,0 13,4 13,9 16 9 35 19 NW 1027,3 54 0 0,1
25.05.2020 10:00:00 11,0 8,3 11,4 13,4 13,3 13,9 14 8 31 17 WNW 1026,9 54 0 0,1
25.05.2020 09:00:00 10,8 8,2 11,3 12,9 13,2 14,0 17 9 36 19 W 1026,5 18 0 0,0
25.05.2020 08:00:00 11,2 8,3 11,8 12,2 13,2 14,0 15 8 37 20 WNW 1025,7 50 3 0,0
25.05.2020 07:00:00 10,6 8,2 10,0 11,3 13,3 14,0 18 10 32 17 WNW 1025,3 39 0 0,2
25.05.2020 06:00:00 10,8 8,5 10,6 11,2 13,4 14,0 16 9 28 15 W 1025,0 41 0 0,0
25.05.2020 05:00:00 10,8 8,6 10,5 11,1 13,6 14,0 17 9 30 16 W 1024,6 39 0 0,0
25.05.2020 04:00:00 10,4 8,5 10,2 11,1 13,8 14,0 16 9 27 14 W 1024,3 38 0 0,0
25.05.2020 03:00:00 9,8 8,0 9,6 11,0 14,0 14,0 10 6 20 11 W 1024,3 42 0 0,0
25.05.2020 02:00:00 9,6 7,1 9,0 11,2 14,4 14,0 14 7 34 18 W 1024,5 47 0 0,0
25.05.2020 01:00:00 10,6 6,6 9,2 11,5 14,7 14,0 20 11 33 18 WNW 1024,7 47 0 0,0
25.05.2020 00:00:00 10,2 7,4 8,6 11,5 15,1 14,1 17 9 28 15 W 1024,4 54 0 0,0
24.05.2020 23:00:00 10,1 9,3 8,7 12,3 15,5 14,1 9 5 17 9 W 1024,4 43 0 0,0
24.05.2020 22:00:00 10,6 9,6 9,5 13,2 15,9 14,1 10 5 27 15 W 1024,2 52 0 0,0

tt = temperature
td = dewpoint
tt 5cm = temperature 5cm
tt -5cm = temperature -5cm
tt -20cm = temperature -20cm
tt -100cm = temperature -100cm
ff = wind speed
fx = gusts
dd = wind direction
ppp = reduced air pressure
vv = visibility
sd = sunshine duration
rr = precipitation

Next stations